ATLAS 5 CENTAUR R/B, 36098

Orbit data source: Space-Track

ATLAS 5 CENTAUR R/B, 36098 is space debris in HEO originally from a launch on Mon, 23 Nov 2009 UTC launched from the Air Force Eastern Test Range (AFETR). Debris objects in space refer to the collection of defunct objects orbiting the Earth. Examples of debris include non-operational satellites, rocket bodies, and fragments generated from explosions, collisions, or faulty payload assembly.

Loading next visibility...
Identifier
36098, 2009-064B
Orbit
HEO
Last TLE update
22 hours ago
Origin
Flag of USUnited Launch Alliance/Lockheed Martin (US)
Manufacturer
LMSS Denver
Mission
Spacecraft
Bus & Motor
CENTAUR SEC, RL10-4A-2
Mass
~2,020 kg wet, 2,020 kg dry
Launch date (UTC)
2009-11-23 (16 years ago)
Launch vehicle
Unknown
Launch site
Air Force Eastern Test Range (AFETR)
Object type
Payload
Rocket body
Debris
Shape & HBR
Cyl + 1 Nozzle, 11.7 m
Radar Cross Section
32.260 m², Large (>1 m²)

Expand to show TLE details & history

TLE from 22 hours ago
0 ATLAS 5 CENTAUR R/B
1 36098U 09064B   25174.76965484 -.00000115  00000-0  00000-0 0  9991
2 36098  21.1066 107.3386 5698068 166.3759 213.0836  1.76308805100362
Epoch: 2025-06-23T18:28Z
TLE epoch observation values (Epoch: 2025-06-23T18:28:18.178Z)
Latitude
-0.86563°
Longitude
-84.20368°
Altitude
37,967.003 km
Speed
2.051 km/s
True Right ascension
07h 00m 11s
True Declination
0° 51' 53"
Sunlit
Object was in daylight at epoch
Visualization orbit readout
Latitude
-17.05473°
Longitude
-134.50035°
Altitude
27,932.247 km
Speed
3.076 km/s
Apparent Right ascension
03h 37m 35s
Apparent Declination
-26° 50' 22"
Sunlit
Object is in daylight
Visualization observer readout
Local Sidereal Time
03:47:03
Azimuth
182.297° SSW
Elevation
23.208°
Doppler factor
1
Orbital elements
Apogee altitude
39,061.214 km
Perigee altitude
6,074.16 km
Semi-major axis
28,945.824 km
Eccentricity
0.56981
Inclination
21.1066°
RAAN
107.3386°
Arg. of periapsis
166.3759°
True anomaly
Unknown
Mean anomaly
213.0836°
Eccentric anomaly
Unknown
Mean motion
0.44072 °/min
Orbital period
816.84 mins
BSTAR
0
Loading maneuver chart data...
Loading SW <> Apogee altitude chart data...
Loading historical data...
Loading historical data...
Loading historical data...
Loading historical data...
Loading historical data...
Loading historical data...
Loading historical data...
Other satellites on launch #64 in the year 2009 (2009-11-23 UTC)

ATLAS 5 CENTAUR R/B Visibility forecast

Observer location: undefined°, undefined°

Span
Click to sort rows by Start time (UTC) header in descending order
Start Az.
Max El. time (UTC)
Max El. Az.
Max El.
End time (UTC)
End Az.
632 mins2025-06-24 16:35:11.547Z182.296° SSW2025-06-25 02:30:11.547Z190.061° SSW40.818°2025-06-25 03:07:11.547Z114.249° SE
|